Date,TemperatureHighF,TemperatureAvgF,TemperatureLowF,DewpointHighF,DewpointAvgF,DewpointLowF,HumidityHigh,HumidityAvg,HumidityLow,PressureMaxIn,PressureMinIn,WindSpeedMaxMPH,WindSpeedAvgMPH,GustSpeedMaxMPH,PrecipitationSumIn
2013-2-1,38.4,33.4,30.7,37.6,32.6,29.9,97,97,96,29.96,29.90,0,0,0,0.00
2013-2-2,41.9,33.2,28.9,41.0,32.3,27.9,97,96,95,29.91,29.79,0,0,0,0.00
2013-2-3,38.1,31.9,26.7,37.0,30.7,25.7,96,96,95,29.87,29.78,0,0,0,0.00
2013-2-4,45.1,36.9,31.1,42.0,35.1,30.0,96,93,83,29.79,29.51,2,0,2,0.00
2013-2-5,40.6,35.7,33.0,39.3,34.2,31.2,96,95,93,29.59,29.48,2,0,2,0.28
2013-2-6,41.0,35.9,32.9,39.4,34.5,31.8,96,95,91,29.68,29.43,0,0,2,0.12
2013-2-7,38.4,34.5,32.1,36.5,32.9,30.8,95,94,90,29.62,29.43,2,0,2,0.10
2013-2-8,36.6,32.4,29.8,33.6,30.0,28.0,93,91,87,29.84,29.81,0,0,0,0.00
2013-2-9,36.5,33.0,29.8,34.8,31.4,28.0,95,94,92,29.90,29.80,0,0,0,0.00
2013-2-10,38.4,34.5,31.6,35.3,32.5,30.3,95,92,87,29.93,29.87,1,0,1,0.00
2013-2-11,41.3,36.0,32.1,38.0,33.8,30.6,95,92,83,29.94,29.88,2,0,2,0.07
2013-2-12,42.0,37.1,33.6,41.0,35.9,32.2,96,96,95,30.01,29.93,0,0,0,0.07
2013-2-13,36.1,35.8,35.7,35.0,34.7,34.7,96,96,96,29.98,29.95,0,0,0,0.00
2013-2-14,42.0,38.0,31.8,40.7,36.7,30.5,96,95,94,30.14,30.11,0,0,0,0.00
2013-2-15,47.4,36.4,30.0,46.4,35.0,28.7,96,95,92,30.11,29.78,0,0,0,0.00
2013-2-16,41.5,35.9,31.8,40.4,34.7,30.5,96,96,95,29.81,29.75,2,0,2,0.22
2013-2-17,39.9,34.9,30.7,36.9,32.9,28.9,96,93,82,29.82,29.68,0,0,0,0.00
2013-2-18,39.9,34.0,29.1,35.2,31.2,27.5,94,90,80,29.68,29.34,0,0,2,0.00
2013-2-19,42.9,35.0,29.4,36.0,31.2,27.2,93,86,73,29.58,29.30,2,0,2,0.00
2013-2-20,30.0,29.9,29.8,28.0,27.7,27.5,92,91,91,29.59,29.58,0,0,0,0.00
2013-2-25,32.1,32.1,32.1,30.9,30.9,30.9,95,95,95,29.90,29.89,0,0,0,0.00
2013-2-26,39.3,34.3,30.9,36.9,32.6,29.6,96,94,90,29.94,29.80,2,0,2,0.20
2013-2-27,44.0,37.3,33.0,42.0,35.7,31.4,96,94,88,29.88,29.82,0,0,0,0.14
2013-2-28,41.9,39.1,35.9,40.8,38.0,34.6,97,96,95,30.00,29.79,0,0,1,0.96